EN

Hourly Weather Godziszewo

Today, 16 May, Sunday

Time Temperature Precipitation Wind Pressure Humidity
00:00 +11°C° 0.3 mm 3 mps 749 mmHg 91%
01:00 +10°C° 0 mm 3 mps 749 mmHg 92%
02:00 +10°C° 0.1 mm 3 mps 748 mmHg 93%
03:00 +10°C° 0.1 mm 3 mps 748 mmHg 93%
04:00 +9°C° 0.1 mm 3 mps 748 mmHg 94%
05:00 +10°C° 0.3 mm 3 mps 748 mmHg 94%
06:00 +10°C° 0.3 mm 4 mps 748 mmHg 94%
07:00 +11°C° 0.3 mm 4 mps 748 mmHg 94%
08:00 +11°C° 0.6 mm 3 mps 748 mmHg 90%
09:00 +12°C° 0.6 mm 3 mps 748 mmHg 86%
10:00 +13°C° 0.6 mm 2 mps 748 mmHg 82%
11:00 +13°C° 0.4 mm 3 mps 748 mmHg 80%
12:00 +13°C° 0.4 mm 3 mps 748 mmHg 78%
13:00 +14°C° 0.4 mm 4 mps 748 mmHg 76%
14:00 +14°C° 0.6 mm 4 mps 748 mmHg 74%
15:00 +15°C° 0.6 mm 4 mps 748 mmHg 73%
16:00 +15°C° 0.6 mm 4 mps 748 mmHg 72%
17:00 +14°C° 0.4 mm 3 mps 748 mmHg 77%
18:00 +13°C° 0.4 mm 3 mps 748 mmHg 82%
19:00 +13°C° 0.4 mm 2 mps 748 mmHg 87%
20:00 +12°C° 0 mm 2 mps 748 mmHg 88%
21:00 +10°C° 0 mm 2 mps 748 mmHg 90%
22:00 +9°C° 0 mm 2 mps 748 mmHg 92%
23:00 +9°C° 0 mm 2 mps 748 mmHg 92%

Tomorrow, 17 May, Monday

Time Temperature Precipitation Wind Pressure Humidity
00:00 +8°C° 0 mm 2 mps 748 mmHg 92%
01:00 +8°C° 0 mm 3 mps 748 mmHg 93%
02:00 +8°C° 0 mm 3 mps 748 mmHg 94%
03:00 +7°C° 0 mm 3 mps 748 mmHg 94%
04:00 +7°C° 0 mm 3 mps 748 mmHg 95%
05:00 +8°C° 0 mm 3 mps 748 mmHg 93%
06:00 +9°C° 0 mm 3 mps 748 mmHg 90%
07:00 +11°C° 0 mm 3 mps 748 mmHg 88%
08:00 +12°C° 0 mm 3 mps 749 mmHg 83%
09:00 +13°C° 0 mm 3 mps 749 mmHg 78%
10:00 +15°C° 0 mm 2 mps 749 mmHg 73%
11:00 +14°C° 0.3 mm 2 mps 749 mmHg 75%
12:00 +14°C° 0.3 mm 2 mps 749 mmHg 77%
13:00 +14°C° 0.3 mm 2 mps 749 mmHg 80%
14:00 +14°C° 0.1 mm 2 mps 749 mmHg 80%
15:00 +14°C° 0.1 mm 1 mps 749 mmHg 80%
16:00 +14°C° 0.1 mm 1 mps 749 mmHg 81%
17:00 +13°C° 0 mm 1 mps 749 mmHg 83%
18:00 +13°C° 0 mm 1 mps 749 mmHg 86%
19:00 +13°C° 0 mm 1 mps 750 mmHg 88%
20:00 +12°C° 0 mm 1 mps 750 mmHg 90%
21:00 +11°C° 0 mm 1 mps 750 mmHg 91%
22:00 +10°C° 0 mm 1 mps 750 mmHg 93%
23:00 +10°C° 0 mm 1 mps 750 mmHg 93%

Day after tomorrow, 18 May, Tuesday

Time Temperature Precipitation Wind Pressure Humidity
00:00 +9°C° 0 mm 2 mps 750 mmHg 94%
01:00 +9°C° 0 mm 2 mps 750 mmHg 94%
02:00 +8°C° 0 mm 2 mps 750 mmHg 95%
03:00 +8°C° 0 mm 2 mps 750 mmHg 96%
04:00 +8°C° 0 mm 2 mps 750 mmHg 96%
05:00 +9°C° 0 mm 3 mps 750 mmHg 93%
06:00 +10°C° 0 mm 3 mps 751 mmHg 89%
07:00 +11°C° 0 mm 3 mps 751 mmHg 85%
08:00 +12°C° 0.2 mm 3 mps 751 mmHg 81%
09:00 +13°C° 0.2 mm 4 mps 751 mmHg 77%
10:00 +14°C° 0.2 mm 4 mps 751 mmHg 73%
11:00 +14°C° 0.4 mm 4 mps 751 mmHg 75%
12:00 +14°C° 0.4 mm 4 mps 751 mmHg 77%
13:00 +13°C° 0.4 mm 4 mps 751 mmHg 79%
14:00 +13°C° 0.4 mm 4 mps 752 mmHg 78%
15:00 +13°C° 0.4 mm 4 mps 752 mmHg 78%
16:00 +13°C° 0.4 mm 4 mps 752 mmHg 78%
17:00 +13°C° 0.1 mm 3 mps 752 mmHg 80%
18:00 +13°C° 0.1 mm 2 mps 752 mmHg 82%
19:00 +12°C° 0.1 mm 1 mps 753 mmHg 83%
20:00 +10°C° 0 mm 2 mps 753 mmHg 86%
21:00 +9°C° 0 mm 2 mps 753 mmHg 88%
22:00 +8°C° 0 mm 2 mps 753 mmHg 90%
23:00 +8°C° 0 mm 2 mps 753 mmHg 92%

19 May, Wednesday

Time Temperature Precipitation Wind Pressure Humidity
00:00 +8°C° 0 mm 2 mps 754 mmHg 93%
01:00 +7°C° 0 mm 2 mps 754 mmHg 94%
02:00 +7°C° 0 mm 2 mps 754 mmHg 95%
03:00 +7°C° 0 mm 3 mps 754 mmHg 96%
04:00 +7°C° 0 mm 3 mps 754 mmHg 97%
05:00 +8°C° 0 mm 3 mps 755 mmHg 94%
06:00 +8°C° 0 mm 4 mps 755 mmHg 91%
07:00 +10°C° 0 mm 5 mps 755 mmHg 88%
08:00 +10°C° 0.1 mm 5 mps 756 mmHg 83%
09:00 +12°C° 0.1 mm 5 mps 756 mmHg 78%
10:00 +12°C° 0.1 mm 5 mps 756 mmHg 73%
11:00 +13°C° 0 mm 5 mps 756 mmHg 68%
12:00 +13°C° 0 mm 5 mps 756 mmHg 64%
13:00 +14°C° 0 mm 5 mps 756 mmHg 60%
14:00 +14°C° 0 mm 5 mps 756 mmHg 60%
15:00 +14°C° 0 mm 4 mps 756 mmHg 61%
16:00 +14°C° 0 mm 4 mps 756 mmHg 61%
17:00 +13°C° 0 mm 3 mps 756 mmHg 67%
18:00 +13°C° 0 mm 2 mps 756 mmHg 72%
19:00 +12°C° 0 mm 2 mps 756 mmHg 78%
20:00 +9°C° 0 mm 2 mps 757 mmHg 81%
21:00 +8°C° 0 mm 2 mps 757 mmHg 83%
22:00 +7°C° 0 mm 2 mps 757 mmHg 86%
23:00 +7°C° 0 mm 2 mps 757 mmHg 88%

20 May, Thursday

Time Temperature Precipitation Wind Pressure Humidity
00:00 +7°C° 0 mm 2 mps 757 mmHg 89%
01:00 +6°C° 0 mm 2 mps 757 mmHg 91%
02:00 +6°C° 0 mm 2 mps 757 mmHg 93%
03:00 +5°C° 0 mm 3 mps 757 mmHg 94%
04:00 +5°C° 0 mm 3 mps 757 mmHg 95%
05:00 +7°C° 0 mm 3 mps 757 mmHg 91%
06:00 +8°C° 0 mm 4 mps 757 mmHg 86%
07:00 +10°C° 0 mm 4 mps 757 mmHg 81%
08:00 +10°C° 0 mm 5 mps 758 mmHg 74%
09:00 +12°C° 0 mm 5 mps 758 mmHg 67%
10:00 +13°C° 0 mm 5 mps 758 mmHg 61%
11:00 +13°C° 0.2 mm 5 mps 758 mmHg 62%
12:00 +14°C° 0.2 mm 6 mps 758 mmHg 63%
13:00 +14°C° 0.2 mm 6 mps 758 mmHg 64%
14:00 +13°C° 0.2 mm 5 mps 758 mmHg 66%
15:00 +13°C° 0.2 mm 5 mps 757 mmHg 68%
16:00 +13°C° 0.2 mm 4 mps 757 mmHg 70%
17:00 +12°C° 0.4 mm 4 mps 757 mmHg 76%
18:00 +11°C° 0.4 mm 3 mps 757 mmHg 82%
19:00 +10°C° 0.4 mm 3 mps 757 mmHg 88%
20:00 +9°C° 0 mm 3 mps 757 mmHg 90%
21:00 +8°C° 0 mm 3 mps 757 mmHg 91%
22:00 +7°C° 0 mm 3 mps 757 mmHg 93%
23:00 +5°C° 0 mm 3 mps 757 mmHg 93%

21 May, Friday

Time Temperature Precipitation Wind Pressure Humidity
00:00 +5°C° 0 mm 3 mps 757 mmHg 94%
01:00 +4°C° 0 mm 3 mps 757 mmHg 94%
02:00 +4°C° 0 mm 3 mps 757 mmHg 94%
03:00 +3°C° 0 mm 3 mps 756 mmHg 94%
04:00 +3°C° 0 mm 3 mps 756 mmHg 94%
05:00 +5°C° 0 mm 3 mps 756 mmHg 92%
06:00 +6°C° 0 mm 4 mps 756 mmHg 90%
07:00 +8°C° 0 mm 4 mps 756 mmHg 88%
08:00 +10°C° 0 mm 4 mps 755 mmHg 81%
09:00 +10°C° 0 mm 5 mps 755 mmHg 74%
10:00 +13°C° 0 mm 5 mps 755 mmHg 67%
11:00 +13°C° 0.2 mm 5 mps 754 mmHg 68%
12:00 +13°C° 0.2 mm 5 mps 754 mmHg 69%
13:00 +14°C° 0.2 mm 5 mps 753 mmHg 71%
14:00 +14°C° 0.1 mm 5 mps 753 mmHg 72%
15:00 +14°C° 0.1 mm 4 mps 752 mmHg 73%
16:00 +13°C° 0.1 mm 3 mps 752 mmHg 74%
17:00 +13°C° 0 mm 3 mps 752 mmHg 77%
18:00 +14°C° 0 mm 2 mps 751 mmHg 79%
19:00 +13°C° 0 mm 2 mps 751 mmHg 81%
20:00 +13°C° 0.1 mm 2 mps 750 mmHg 81%
21:00 +12°C° 0.1 mm 3 mps 750 mmHg 81%
22:00 +12°C° 0.1 mm 3 mps 749 mmHg 82%
23:00 +12°C° 0.3 mm 4 mps 749 mmHg 85%
Show more